Location: Unspecified
(0.0000°N, 0.0000°E)
Time: 01:30:23
(UTC+00:00)

A-11 Canister half - Pass Details

Date: 21 November 2019
Orbit: 1515 x 1685 km, 47.2° (Epoch: 10 December)

Event Time Altitude Azimuth Distance (km) Brightness Sun altitude
Rises 12:54:04 0° 204° (SSW) 4,704 11.9 64.0°
Reaches altitude 10° 12:57:24 10° 196° (SSW) 3,740 11.6 63.5°
Maximum altitude 13:06:04 39° 130° (SE) 2,216 10.4 62.0°
Drops below altitude 10° 13:14:58 10° 64° (ENE) 3,857 10.9 60.5°
Sets 13:18:25 0° 57° (ENE) 4,864 11.3 59.8°
